SBATSBCY

Guest
Details From SBAT - Alta Floresta
To SBCY - Marechal Rondon
Flight Number -
Tags Generated
Created
Modified
Stats Distance 348 nm / 644 km
Max Altitude 0 ft / 0 m
Waypoints 3
Social Downloads 1
Likes 0
Share VATSIM

Download

Looking for another format? Having issues loading an existing format? Contact us
Advertisement - Login to hide

Notes

Generated

Route

SBAT CIA SBCY

ID Type Via Altitude Latitude Longitude Leg Dist Tot Dist Heading (true) Name
O SBAT APT - 0 ft / 0 m -9.87686˚ -56.10986˚ - 0 nm - -
CIA NDB - 0 ft / 0 m -15.65500˚ -56.12017˚ 347 nm 347 nm 180° / 180° CUIABA NDB
O SBCY APT - 0 ft / 0 m -15.64372˚ -56.12163˚ 0 nm 347 nm 353° / 353° -

Altitude Profile

Advertisement - Login to hide

Weather


0- 5 10 15 20 25 30 35+ Temperature / ° C

Clouds and Precipitation
Forecast for 2018-05-22 06:00 UTC. Updated 3 hours ago

Ground ~20,000 ft ~40,000 ft Winds

SBAT

Details ICAO SBAT (AFL)
Name ALTA FLORESTA
Region Brazil
Timezone America/Cuiaba (UTC-4.0)
Stats Elevation 947 ft / 289 m (AMSL)
Location -9.866090° -56.106204°
Runways 1
Magnetic Variation 17.900° W

METAR

Not found

TAF

TAF SBAT 220400Z 2206/2218 16005KT CAVOK TN22/2211Z TX28/2217Z BECMG 2209/2211 9999 FEW010 BECMG 2213/2215 FEW030 BECMG 2216/2218 12005KT RMK PEN

Decode

Departure Runways

ID Width Length Bearing (true) Bearing (mag) Surface Threshold Offset Overrun Length
03 100 ft / 30 m 8,288 ft / 2,526 m 18.48° 36.38° Asphalt 1,312 ft / 400 m 190 ft / 58 m
21 100 ft / 30 m 8,288 ft / 2,526 m 198.48° 216.38° Asphalt 0 ft / 0 m 195 ft / 59 m

SBCY

Details ICAO SBCY (CGB)
Name Marechal Rondon
Region Brazil
Timezone America/Cuiaba (UTC-4.0)
Stats Elevation 609 ft / 186 m (AMSL)
Location -15.652930° -56.116720°
Runways 1
Magnetic Variation 17.466° W

METAR

SBCY 220800Z 00000KT CAVOK 16/15 Q1017

Decode

TAF

TAF SBCY 220400Z 2206/2306 17005KT CAVOK TN17/2210Z TX24/2219Z BECMG 2214/2216 33005KT BECMG 2220/2222 16008KT CAVOK RMK PEN

Decode

Destination Runways

ID Width Length Bearing (true) Bearing (mag) Surface Threshold Offset Overrun Length
17 148 ft / 45 m 7,558 ft / 2,304 m 152.83° 170.30° Asphalt 0 ft / 0 m 190 ft / 58 m
35 148 ft / 45 m 7,558 ft / 2,304 m 332.82° 350.29° Asphalt 0 ft / 0 m 190 ft / 58 m

Approach Navaids

Runway Type Ident Frequency Range Bearing (true) Bearing (mag) Slope Elevation
35 Localiser ICB 109.30 MHz 18 nm / 33 km 333.66° 351.12° - 609 ft / 186 m (AMSL)

Popular Alternatives